Temperature
8 6 6 7 7 8 8 8 8 8 9 9 8 8 9 9 9 8 9 9 10 10 10 10 10 10 10 10 10 10 10 9 9 9 9 9 9 9 8 8 8 8 8 8
6 6 7 8 8 8 8 8 8 8 9 9 8 8 8 8 8 9 9 9 9 10 10 10 10 10 10 10 9 9 9 9 9 9 9 9 9 8 8 8 8 8 8 8
6 7 8 8 8 7 7 7 7 7 8 8 7 7 8 8 8 9 9 9 9 10 10 9 9 9 9 9 9 9 9 9 9 8 8 8 8 7 7 8 8 7 7 7
6 7 8 7 7 7 7 8 8 7 6 6 7 6 7 7 7 8 8 9 9 9 9 9 9 9 9 9 9 9 9 9 8 8 8 8 8 8 8 8 7 7 7 7
6 7 7 7 7 7 7 8 7 7 6 5 6 6 6 6 7 8 8 8 9 9 9 9 9 9 9 9 9 8 8 8 8 8 8 8 8 7 7 7 7 7 7 7
6 7 7 7 7 7 7 7 6 5 5 5 6 5 6 6 7 8 8 8 9 9 9 9 9 9 8 8 8 8 8 8 8 7 7 7 7 7 7 7 7 6 6 6
5 6 7 7 7 7 6 5 5 5 4 5 5 6 6 7 7 8 8 8 8 8 8 8 8 8 8 8 8 8 8 8 7 7 7 7 7 7 7 7 6 6 6 6
4 5 6 6 6 5 5 5 5 5 5 5 5 5 6 7 7 8 8 8 8 8 8 8 8 8 8 8 8 8 7 7 7 7 7 6 6 6 6 6 6 6 6 6
4 5 6 6 6 6 5 5 5 4 4 4 5 5 6 7 7 7 7 7 7 7 7 8 8 8 8 8 8 7 7 7 7 6 6 6 6 6 6 6 6 5 5 5
4 4 5 5 6 6 5 4 4 4 5 5 5 5 6 7 6 6 6 6 7 7 7 7 7 7 7 7 7 7 7 7 6 6 6 6 5 5 5 5 5 5 5 5
4 3 3 4 4 4 4 4 4 3 4 4 5 6 6 6 6 6 5 6 6 6 6 7 7 7 7 7 7 6 6 6 6 6 5 5 5 5 5 5 5 5 5 4
3 2 2 3 4 4 4 4 3 4 3 3 4 5 6 6 6 5 6 6 6 6 6 6 6 6 6 6 6 6 6 6 6 5 5 5 5 5 4 4 4 4 4 4
3 2 2 3 3 3 3 3 3 3 2 2 3 5 6 5 5 6 6 6 6 6 6 6 6 6 6 6 6 6 5 5 5 5 5 4 4 4 4 4 4 4 4 4
3 1 2 3 3 2 2 3 2 2 2 2 3 4 5 5 5 5 5 6 6 6 6 5 6 6 5 5 5 5 5 5 5 4 4 4 4 4 4 4 4 4 4 4
2 1 1 2 3 2 2 2 2 2 2 3 3 4 5 5 4 4 5 5 5 5 5 5 5 5 5 5 5 5 5 4 4 4 4 4 3 3 3 3 3 3 3 3
1 1 1 1 2 2 2 2 3 3 3 2 3 3 4 5 4 4 4 5 4 5 5 5 5 5 5 4 4 4 4 4 4 3 3 3 3 3 3 3 3 3 3 3
0 0 1 1 1 1 1 2 2 2 2 2 3 4 4 3 3 4 4 4 4 5 5 5 5 5 4 4 4 4 4 3 3 3 3 3 2 2 2 2 2 2 2 2
-0 -0 -0 -0 0 1 3 3 3 2 2 2 3 3 3 3 4 4 5 5 5 5 5 5 4 4 4 4 3 3 3 3 3 2 2 2 2 2 2 2 2 2 2 2
0 -0 -1 -1 -0 1 3 3 2 2 2 2 2 2 3 3 3 3 5 5 5 5 4 4 4 4 4 3 3 3 3 2 2 2 2 2 2 1 1 1 1 1 1 1
-1 -1 -1 -1 0 1 3 3 3 3 2 3 2 2 2 2 1 2 4 4 4 4 4 4 4 3 3 3 3 2 2 2 2 2 2 1 1 1 1 1 1 1 1 1
-0 -1 -1 -1 -0 1 2 2 3 2 3 3 3 3 2 2 3 4 4 4 4 4 3 3 3 3 3 2 2 2 2 2 2 2 1 1 1 1 1 0 0 0 0 0
-0 -1 -1 -1 -1 1 2 1 2 2 3 3 3 3 3 3 3 3 3 3 3 3 3 2 2 2 2 2 2 2 2 1 1 1 1 1 0 0 0 -0 -0 -0 -1 -1
-1 -0 -0 -0 1 2 2 3 3 3 3 3 3 3 3 2 2 2 2 2 2 2 2 2 2 2 2 1 1 1 1 1 1 0 0 0 -0 -0 -1 -1 -1 -1 -1 -1
-1 -1 -1 -1 0 1 2 3 3 3 3 3 3 3 3 2 2 2 2 2 2 2 2 1 1 1 1 1 1 1 1 0 0 -0 -0 -1 -1 -1 -1 -1 -1 -1 -2 -2
-1 -1 -1 -1 -0 0 2 3 3 3 3 3 3 2 2 2 2 2 1 1 1 1 1 1 1 1 1 0 0 0 0 -0 -1 -1 -1 -1 -1 -1 -1 -2 -2 -2 -2 -2
-1 -1 -1 0 1 0 1 3 2 2 2 2 2 2 2 2 1 1 1 1 1 1 1 0 0 0 0 0 -0 -0 -1 -1 -1 -1 -1 -2 -2 -2 -2 -2 -2 -2 -2 -2
Wind_Speed
2 3 7 10 10 7 5 5 7 7 4 4 9 12 12 8 7 9 9 9 9 10 8 6 6 6 6 6 7 7 7 6 5 4 4 4 3 3 2 3 4 4 4 4
1 8 11 6 5 6 6 7 7 6 4 4 7 12 11 9 9 10 11 11 10 8 6 6 6 6 7 7 7 7 8 7 7 5 4 3 3 2 3 2 3 4 4 4
8 6 5 6 6 7 9 8 8 6 4 3 3 8 8 7 6 7 8 8 9 10 10 9 7 7 7 7 8 7 8 8 7 6 4 3 2 2 1 1 2 2 3 3
6 6 4 6 7 8 9 7 6 5 2 4 2 6 8 6 6 8 9 8 9 9 8 8 8 8 8 7 7 7 7 7 7 7 6 6 5 4 3 3 2 2 3 3
5 4 5 8 8 8 6 4 4 4 4 4 3 4 9 4 7 10 10 10 10 9 9 9 9 9 7 6 6 6 6 6 6 7 7 7 5 4 2 2 2 2 2 3
6 4 4 5 4 5 3 2 2 1 2 5 8 7 8 6 9 8 8 9 9 8 8 8 7 6 5 4 5 5 6 5 5 6 6 7 7 5 4 3 3 3 2 2
4 5 4 3 2 1 3 4 1 2 2 7 5 6 10 9 9 9 9 8 8 7 8 7 7 7 6 6 6 6 6 5 5 6 6 7 7 7 7 6 5 4 3 2
3 5 5 3 6 6 6 7 6 5 6 4 3 8 8 7 6 5 5 6 6 6 7 7 7 7 7 7 7 6 6 5 6 6 6 5 6 5 4 5 4 5 4 4
4 4 2 3 2 7 6 6 5 4 2 3 6 6 7 3 2 2 2 3 5 6 7 6 6 6 7 7 7 7 7 6 5 6 5 5 5 5 5 4 4 4 4 3
4 3 4 2 1 1 4 5 3 4 4 5 6 5 5 5 4 3 3 4 4 4 5 5 5 5 5 6 5 5 6 6 5 5 5 4 5 5 5 4 4 4 4 4
2 3 3 1 5 6 4 4 4 4 4 5 4 6 5 6 6 5 4 4 5 5 5 4 4 4 4 4 4 4 5 4 4 5 4 4 4 4 4 4 5 5 4 5
2 2 3 5 4 3 5 6 6 5 5 4 4 7 3 3 3 3 4 4 4 5 4 4 4 4 4 4 4 5 5 5 5 5 5 4 4 4 4 4 4 5 5 5
3 3 0 3 2 1 3 4 4 2 2 4 5 7 3 2 2 2 3 3 3 3 3 3 3 4 4 4 4 4 4 5 4 4 4 4 4 4 4 4 4 4 4 4
2 4 7 8 6 4 5 6 5 4 4 6 9 9 8 6 5 5 3 3 3 4 4 4 4 4 4 4 4 4 4 4 4 4 4 4 4 4 4 3 3 3 4 4
3 4 6 8 6 5 8 10 10 10 10 9 10 10 13 9 7 6 5 4 3 4 4 5 5 4 4 4 4 4 4 4 4 4 4 4 3 3 2 2 2 2 2 3
3 3 2 5 5 6 10 12 13 13 11 12 11 13 11 7 4 5 6 6 6 6 6 6 6 6 5 5 5 4 4 4 4 4 4 3 3 2 2 2 2 2 2 2
4 4 2 5 3 3 9 11 13 9 9 9 13 13 7 5 6 7 7 7 7 7 7 7 7 7 6 6 6 5 5 4 5 4 4 3 3 3 2 2 2 2 2 2
6 4 3 2 1 7 8 4 8 9 10 11 9 8 7 8 6 5 6 7 7 7 7 6 6 5 5 5 5 4 4 4 5 4 4 4 4 3 3 2 3 2 2 2
6 6 3 3 4 8 8 4 5 7 8 8 10 10 8 4 3 5 5 5 7 7 6 6 5 5 4 5 5 4 4 4 4 5 5 4 4 4 3 3 3 2 2 2
3 4 4 3 4 7 6 3 2 3 6 5 7 7 6 2 3 6 4 4 5 5 4 4 4 3 3 4 5 5 5 5 6 6 5 5 4 4 4 4 3 2 2 3
4 3 5 5 6 8 6 2 4 4 7 3 4 6 6 6 7 6 4 4 5 4 4 4 4 4 4 4 5 5 5 6 6 5 4 4 4 4 4 3 2 2 2 2
7 6 6 5 5 9 3 4 6 7 4 2 4 4 4 5 5 4 3 4 4 3 3 3 4 3 3 4 5 5 6 5 4 4 4 4 4 4 3 3 3 2 2 2
7 8 6 9 9 5 5 6 6 4 4 4 4 4 4 4 4 3 3 3 3 3 3 3 4 3 3 3 5 6 5 4 5 4 4 4 4 3 3 4 4 3 3 3
5 3 4 6 8 7 7 6 5 5 6 6 5 5 4 5 5 4 3 3 2 2 2 2 3 3 3 4 5 5 4 4 5 5 4 4 4 3 3 3 4 4 4 4
7 5 5 7 8 6 6 6 6 6 5 4 4 4 4 5 5 5 4 4 3 3 2 2 4 4 5 4 4 4 4 5 5 5 4 4 4 4 3 3 4 4 5 5
6 7 7 9 7 6 8 6 5 5 5 5 4 3 3 4 4 4 4 4 4 4 3 3 3 4 4 3 4 4 4 6 6 5 5 4 3 3 3 3 2 4 4 6
Wind_Direction
171 156 210 212 208 209 197 215 238 245 245 223 239 256 261 248 236 231 230 224 217 218 216 199 192 186 179 181 180 180 178 175 163 159 161 166 178 177 180 185 179 179 177 173
119 233 232 219 215 223 230 241 258 274 275 237 254 265 264 243 230 224 221 217 212 210 209 204 191 184 182 182 183 182 183 178 174 176 179 175 166 174 186 188 182 183 182 181
209 237 216 205 216 221 233 227 243 257 305 307 295 288 265 258 236 234 223 214 209 204 204 202 194 189 185 186 187 188 185 179 177 170 155 133 107 95 132 194 195 192 187 187
238 254 231 217 226 211 239 229 228 240 250 266 206 273 270 251 248 236 230 217 213 212 204 197 192 189 190 193 188 184 179 175 173 165 164 164 170 182 198 195 199 197 190 188
239 241 221 228 229 210 222 212 209 220 212 264 231 236 273 253 247 240 231 221 215 211 199 195 194 193 191 183 180 181 173 171 172 171 173 173 180 188 181 173 179 192 195 193
247 254 224 223 231 203 174 99 50 58 129 251 223 208 268 230 225 232 227 217 213 205 194 191 189 183 183 174 170 169 170 177 177 176 178 179 181 179 173 183 191 199 206 206
270 257 239 189 155 165 141 130 35 312 242 244 210 209 248 243 231 221 220 216 212 197 186 183 180 180 180 177 178 174 173 179 181 178 182 186 186 184 188 192 196 197 201 213
227 258 231 206 195 190 195 173 183 207 222 266 243 229 250 260 246 225 212 202 194 189 185 183 184 183 183 182 180 178 179 183 183 183 187 187 186 187 194 196 196 202 207 210
202 246 268 241 210 170 173 205 197 170 210 251 251 268 294 276 257 207 188 179 191 192 189 186 182 182 182 182 184 185 183 186 189 187 183 183 186 191 197 198 197 205 204 201
173 251 267 264 118 209 172 162 143 168 195 242 265 251 238 241 231 220 206 208 206 190 186 187 185 184 184 182 182 181 183 186 189 184 184 187 191 196 196 192 201 207 205 198
162 198 269 256 204 200 171 176 185 183 189 191 248 261 226 211 206 201 212 211 200 195 196 194 190 185 176 170 172 181 185 183 186 189 187 183 191 191 190 199 209 209 206 200
175 166 239 245 262 232 203 201 181 190 225 202 216 262 270 220 227 196 211 216 210 201 194 185 179 176 176 179 181 186 188 189 192 188 183 185 188 186 192 210 217 207 205 205
163 156 289 321 307 286 229 210 194 178 174 196 212 257 313 348 325 261 218 219 218 204 193 186 181 183 189 192 190 189 191 194 189 177 177 183 188 191 203 216 218 207 205 209
181 186 202 218 231 199 234 238 208 183 211 226 231 253 282 290 290 288 271 240 227 201 189 190 195 197 197 196 194 193 199 192 182 175 178 189 197 200 209 214 213 208 203 207
160 216 230 246 249 230 235 235 223 221 218 220 240 246 258 253 248 256 259 248 232 211 200 198 199 203 202 200 199 194 194 189 180 178 188 200 199 195 194 200 210 210 205 213
165 206 237 271 258 252 259 246 232 233 232 236 250 261 260 258 241 244 243 232 222 220 215 212 207 205 205 204 203 197 197 190 175 180 193 190 183 185 192 200 201 200 210 218
181 176 197 258 277 304 262 232 217 219 218 211 233 245 255 257 243 232 232 228 224 228 223 216 214 212 210 207 201 199 201 185 175 181 185 185 182 190 205 210 203 212 222 229
176 176 192 211 137 236 246 210 199 213 233 222 232 244 241 242 251 257 243 224 225 226 223 219 214 214 211 202 197 194 183 178 183 187 193 194 188 197 206 205 214 224 225 228
183 171 177 179 220 266 283 241 185 199 252 230 230 245 252 250 292 288 259 219 221 224 218 213 206 204 199 196 189 175 181 182 187 196 200 200 195 198 202 210 221 223 219 239
167 165 171 184 206 238 253 244 188 141 268 251 215 233 246 204 256 264 250 223 224 224 216 207 195 182 188 195 175 172 187 189 202 205 205 199 194 196 203 211 219 221 220 228
182 189 199 209 231 258 258 233 123 176 251 260 217 230 227 219 234 248 246 237 224 221 213 198 188 194 203 187 168 181 195 207 209 198 193 193 194 199 201 203 207 207 219 232
189 190 200 186 218 253 226 146 186 229 269 263 249 238 237 243 250 257 250 237 219 209 206 191 191 207 205 184 174 189 212 211 188 183 188 194 195 197 193 194 206 203 201 218
208 201 198 201 222 250 214 216 233 237 255 259 245 249 234 245 246 249 255 244 227 211 209 197 188 200 209 197 186 200 214 187 176 180 191 195 193 196 192 195 203 206 203 212
244 211 204 244 258 258 255 257 258 247 247 258 254 246 233 237 241 240 238 242 241 228 216 198 180 195 220 215 206 207 198 180 179 187 195 193 191 197 198 204 205 208 212 217
223 190 214 248 265 284 269 249 255 265 267 264 262 252 236 228 238 230 233 233 230 232 227 205 202 210 221 213 212 209 190 176 184 191 195 197 199 198 204 213 216 219 221 220
215 200 208 238 236 232 258 258 253 254 255 250 247 261 250 223 234 239 239 236 226 224 221 213 213 214 218 206 212 211 194 182 184 194 196 198 200 202 206 213 244 245 241 245
Height
1481 1486 1486 1483 1483 1483 1484 1487 1486 1482 1478 1480 1480 1477 1472 1471 1471 1470 1469 1470 1470 1471 1472 1474 1476 1478 1479 1481 1483 1484 1486 1487 1489 1490 1492 1493 1494 1496 1497 1498 1499 1500 1500 1501
1484 1484 1478 1479 1481 1482 1483 1485 1484 1481 1478 1478 1478 1474 1469 1466 1465 1464 1464 1464 1465 1467 1468 1470 1472 1473 1475 1476 1478 1480 1482 1484 1485 1487 1489 1490 1492 1493 1494 1495 1496 1496 1497 1497
1480 1477 1475 1477 1479 1481 1481 1484 1483 1482 1479 1477 1479 1475 1468 1462 1461 1460 1459 1459 1460 1462 1463 1465 1467 1469 1471 1472 1474 1476 1478 1480 1482 1484 1486 1487 1489 1489 1490 1491 1492 1493 1494 1494
1478 1474 1475 1476 1477 1478 1479 1477 1479 1480 1484 1485 1482 1483 1466 1461 1458 1456 1455 1455 1456 1457 1459 1460 1462 1464 1466 1468 1471 1472 1474 1476 1479 1481 1482 1483 1484 1485 1486 1487 1489 1490 1491 1491
1475 1472 1472 1473 1472 1473 1474 1474 1476 1478 1482 1485 1482 1484 1467 1460 1457 1452 1450 1450 1451 1452 1454 1456 1458 1460 1463 1465 1467 1469 1471 1473 1475 1477 1479 1480 1481 1482 1484 1485 1485 1486 1487 1488
1472 1470 1470 1469 1469 1470 1472 1475 1478 1481 1484 1486 1477 1480 1467 1459 1450 1446 1446 1446 1447 1449 1450 1453 1455 1458 1460 1463 1464 1466 1468 1470 1472 1474 1475 1477 1478 1479 1480 1481 1482 1483 1484 1484
1472 1469 1467 1466 1469 1470 1472 1479 1487 1487 1489 1480 1472 1472 1461 1447 1443 1442 1442 1442 1443 1445 1447 1449 1452 1454 1457 1459 1461 1463 1465 1467 1468 1470 1472 1473 1475 1476 1477 1478 1479 1479 1480 1481
1474 1472 1466 1464 1466 1469 1471 1474 1481 1483 1484 1478 1471 1468 1452 1442 1439 1438 1439 1439 1441 1442 1444 1446 1448 1451 1454 1456 1458 1460 1462 1464 1465 1467 1469 1470 1472 1473 1474 1475 1476 1476 1477 1477
1472 1470 1464 1462 1462 1464 1469 1471 1470 1477 1480 1479 1470 1460 1448 1439 1438 1438 1438 1438 1439 1440 1442 1444 1447 1449 1451 1453 1455 1457 1459 1461 1462 1464 1465 1467 1468 1470 1470 1471 1472 1473 1473 1474
1468 1471 1465 1462 1462 1462 1464 1467 1473 1475 1475 1472 1464 1459 1451 1440 1438 1437 1438 1438 1438 1439 1441 1443 1444 1446 1448 1450 1453 1455 1456 1458 1459 1461 1462 1463 1465 1466 1467 1468 1468 1469 1469 1470
1466 1471 1468 1465 1464 1463 1465 1467 1467 1470 1471 1471 1468 1455 1439 1436 1435 1436 1436 1436 1437 1438 1439 1441 1443 1445 1447 1448 1450 1452 1454 1455 1456 1458 1459 1460 1462 1463 1463 1464 1465 1465 1466 1466
1465 1469 1470 1465 1461 1459 1461 1462 1465 1468 1469 1469 1466 1453 1434 1434 1433 1433 1434 1435 1436 1436 1437 1439 1441 1443 1445 1446 1448 1449 1451 1452 1453 1455 1456 1457 1458 1459 1459 1460 1461 1461 1462 1462
1463 1467 1469 1466 1466 1463 1461 1460 1462 1464 1467 1468 1465 1451 1435 1434 1433 1433 1434 1434 1434 1435 1436 1437 1439 1441 1442 1444 1445 1447 1448 1449 1450 1452 1453 1454 1454 1455 1456 1456 1457 1458 1458 1458
1459 1464 1465 1462 1457 1459 1461 1459 1460 1463 1465 1463 1456 1446 1438 1435 1434 1433 1432 1433 1433 1434 1434 1436 1437 1439 1440 1442 1443 1444 1445 1446 1447 1448 1449 1450 1451 1451 1452 1453 1453 1454 1454 1454
1457 1461 1460 1456 1454 1455 1454 1454 1455 1456 1454 1455 1446 1443 1434 1432 1432 1432 1431 1431 1432 1432 1433 1434 1435 1436 1437 1439 1440 1441 1442 1443 1444 1445 1446 1446 1447 1448 1448 1449 1449 1450 1450 1451
1456 1458 1458 1456 1452 1452 1450 1447 1447 1447 1446 1445 1442 1437 1428 1428 1429 1429 1429 1429 1429 1430 1430 1431 1432 1433 1434 1435 1436 1437 1438 1439 1440 1441 1442 1443 1443 1444 1444 1445 1446 1446 1446 1447
1454 1457 1458 1455 1452 1451 1449 1439 1439 1439 1436 1437 1436 1429 1425 1427 1426 1426 1425 1425 1425 1426 1427 1427 1428 1429 1430 1431 1432 1433 1434 1436 1436 1437 1438 1439 1439 1440 1441 1441 1442 1442 1442 1443
1451 1454 1457 1457 1457 1454 1432 1427 1427 1430 1428 1428 1426 1423 1423 1423 1422 1422 1422 1422 1422 1422 1423 1423 1424 1425 1426 1427 1428 1430 1431 1431 1432 1433 1434 1435 1436 1436 1437 1437 1438 1438 1438 1439
1444 1450 1455 1456 1454 1444 1429 1424 1425 1427 1425 1421 1421 1420 1420 1419 1420 1419 1418 1419 1419 1419 1419 1420 1421 1421 1422 1423 1424 1425 1427 1428 1428 1429 1430 1431 1432 1432 1433 1433 1434 1434 1434 1434
1443 1445 1451 1452 1448 1441 1424 1420 1419 1423 1424 1416 1416 1416 1417 1417 1421 1416 1415 1415 1415 1416 1416 1416 1417 1418 1419 1419 1421 1421 1422 1423 1424 1425 1426 1427 1428 1428 1428 1429 1430 1430 1430 1430
1443 1445 1446 1446 1445 1433 1421 1418 1419 1427 1420 1413 1412 1412 1413 1413 1413 1412 1412 1412 1411 1411 1412 1412 1413 1413 1414 1416 1417 1417 1418 1419 1420 1422 1423 1423 1424 1424 1425 1426 1426 1426 1427 1427
1436 1439 1442 1443 1443 1430 1415 1417 1419 1415 1411 1410 1409 1409 1409 1408 1408 1408 1408 1408 1407 1407 1408 1408 1409 1409 1411 1412 1413 1413 1414 1416 1417 1418 1418 1419 1420 1420 1421 1422 1422 1423 1423 1423
1430 1427 1427 1427 1422 1413 1411 1410 1409 1409 1409 1408 1407 1406 1406 1405 1405 1405 1405 1404 1404 1404 1404 1405 1405 1406 1407 1409 1410 1410 1411 1412 1413 1413 1414 1415 1416 1417 1417 1418 1418 1419 1419 1419
1423 1420 1422 1420 1412 1409 1408 1407 1406 1406 1405 1404 1404 1403 1403 1402 1402 1402 1402 1402 1401 1401 1401 1402 1402 1402 1403 1405 1406 1407 1408 1408 1409 1409 1410 1411 1412 1413 1413 1414 1415 1415 1415 1415
1415 1417 1417 1414 1408 1406 1403 1403 1403 1403 1402 1401 1401 1400 1399 1399 1398 1398 1398 1398 1398 1398 1398 1399 1399 1399 1400 1401 1402 1403 1403 1404 1405 1405 1406 1407 1408 1409 1409 1410 1411 1411 1412 1412
1408 1410 1411 1406 1402 1403 1399 1399 1399 1399 1398 1397 1397 1396 1396 1396 1395 1395 1395 1395 1395 1395 1395 1395 1396 1396 1397 1398 1398 1399 1399 1400 1400 1401 1402 1403 1404 1405 1405 1406 1407 1408 1409 1409